Location: Alta
(39.2070°N, 120.8111°W)
Time: 04:49:00
(UTC+00:00)

CZ-4B DEB - Pass Details

Date: 14 December 2023
Orbit: 838 x 858 km, 99.0° (Epoch: 02 March)

Event Time Altitude Azimuth Distance (km) Brightness Sun altitude
Rises 03:16:04 0° 171° (S) 3,415 7.4 -29.2°
Reaches altitude 10° 03:18:27 10° 174° (S) 2,484 6.6 -29.7°
Enters shadow 03:21:33 35° 184° (S) 1,363 5.3 -30.3°
Exits shadow 03:23:10 60° 212° (SSW) 975 4.5 -30.6°
Maximum altitude 03:23:56 68° 258° (WSW) 920 4.4 -30.7°
Drops below altitude 10° 03:29:28 10° 341° (NNW) 2,500 6.8 -31.8°
Sets 03:31:53 0° 344° (NNW) 3,439 7.5 -32.3°
